Regional Weather Roundup
Issued by NWS Charleston, SC

Current Version | Previous Version | Text Only | Print | Product List | Glossary Off
Versions: 1 2 3 4 5 6 7 8 9 10 11 12 13 14 15 16 17 18 19 20 21 22 23 24 25 26 27 28 29 30 31 32 33 34 35 36 37 38 39 40 41 42 43 44 45 46 47 48 49 50

000
ASUS42 KCHS 211125
RWRCHS

REGIONAL WEATHER ROUNDUP
NATIONAL WEATHER SERVICE CHARLESTON SC
700 AM EDT TUE OCT 21 2014

NOTE: "FAIR" INDICATES FEW OR NO CLOUDS BELOW 12,000 FEET WITH NO
SIGNIFICANT WEATHER AND/OR OBSTRUCTIONS TO VISIBILITY.

NOT ALL STATIONS ARE QUALITY CONTROLLED BY THE NATIONAL
WEATHER SERVICE. USE DATA WITH CAUTION...ESPECIALLY
DEWPOINT OBSERVATIONS.

SCZ027-030-031-034>040-042>050-211200-
...SOUTH CAROLINA...

CITY           SKY/WX    TMP DP  RH WIND       PRES   REMARKS
N CHARLESTON   PTCLDY    64  59  83 CALM      29.96S
WATERFRONT PRK   N/A     66 N/A N/A NW3         N/A
FORT JOHNSON   NOT AVBL
JOHNS ISLAND   SUNNY     63  63 100 CALM      29.96S
PINOPOLIS        N/A     66  61  82 W5        29.88R
MONCKS CORNER  FAIR      57  57 100 CALM      29.96S FOG
SUMMERVILLE    FAIR      54  54 100 CALM      29.97S
BEAUFORT MCAS  PTCLDY    61  60  97 CALM      29.97R FOG
BEAUFORT ARPT  FAIR      63  63 100 CALM      29.96S FOG
HILTON HEAD IS CLEAR     64  64 100 CALM      29.97R
GEORGETOWN     NOT AVBL
WALTERBORO     MOSUNNY   55 N/A N/A CALM      29.97S
ORANGEBURG     CLEAR     51  49  92 SW3       29.97R FOG
BARNWELL       FAIR      48  48 100 CALM      29.98R
AIKEN          FAIR      48  48 100 CALM      30.00R
MANNING        FAIR      52 N/A N/A CALM      29.96S
KINGSTREE      NOT AVBL
COLUMBIA       CLEAR     51  47  86 CALM      29.95S
SUMTER         CLEAR     53  51  92 SW1       29.94S
FLORENCE       CLEAR     52  50  93 CALM      29.95S
MYRTLE BEACH   CLEAR     59  54  82 CALM      29.95S
N MYRTLE BEACH PTCLDY    59  56  89 NW6       29.94S

$$

GAZ063-065-086>088-099>101-113>116-118-119-134-136>141-150-211200-
...GEORGIA...

CITY           SKY/WX    TMP DP  RH WIND       PRES   REMARKS
SAVANNAH ARPT  PTCLDY    62  59  90 CALM      29.97R
HUNTER AAF     CLEAR     61  61 100 CALM      29.95R
FORT STEWART   CLEAR     60  58  94 CALM      29.95S
STATESBORO     NOT AVBL
SYLVANIA       SUNNY     56  56  99 CALM      29.99R
CLAXTON        FAIR      55  55 100 CALM      29.98R FOG
THOMSON        CLEAR     49  49 100 CALM      30.03R
AUGUSTA-BUSH   CLEAR     45  44  97 S3        29.97S
AUGUSTA-DANIEL CLEAR     59  50  72 CALM      29.97S
SWAINSBORO     FAIR      52  52 100 MISG      30.00R FOG
VIDALIA        CLEAR     55  55 100 CALM      29.99R
ALMA           CLEAR     57  55  93 CALM      29.97R
WAYCROSS       CLEAR     62  60  96 CALM      29.97R
JESUP          FAIR      61  61 100 CALM      29.97R FOG
BRUNSWICK        N/A     61  59  94 CALM      29.97R VSB 3/4
SAINT SIMONS   CLEAR     62  62 100 NW5       29.95S

$$

SCZ027-028-034-036>038-045-046-048>050-GAZ119-141-211200-
...LAKE AND SUPPLEMENTAL COASTAL OBSERVATIONS...

STATION/POSITION TIME  TEMP    WIND        PRES    WAVE   SWELL
                       AIR SEA DIR/SP/G            HT/PER HT/PER/DIR
                 (UTC) (F)     (DEG/KT/KT) (MB)    (FT/S) (FT/S/D)
UPR LAKE MARION  NOT AVBL
WINYAH BAY       1100   62     290/  4     1014.0S
LAKE MURRAY      1100   59     250/  3/  5 1013.9R
ACE BASIN NERRS  1100   62        CALM     1014.0S
FORT PULASKI     1100   66     340/  2/  2 1014.9R
SAPELO ISLAND    NOT AVBL

$$

ANZ835-935-AMZ111-154-330-350-352-354-374-450-454-472-211200-
...C-MAN AND BUOY OBSERVATIONS...

STATION/POSITION TIME  TEMP    WIND        PRES    WAVE   SWELL
                       AIR SEA DIR/SP/G            HT/PER HT/PER/DIR
                 (UTC) (F)     (DEG/KT/KT) (MB)    (FT/S) (FT/S/D)
FOLLY BEACH CMAN 1100   66     310/  4/  5 1014.7R
BUOY 41004       1100   74 79  240/  6/  6 1013.5S   2/ 9   2/ 9
BUOY 41008       1100   73 76  320/ 10/ 14 1013.9S   2/ 9   2/ 90/ 9
5E ST. MARYS GA  1100      77                N/A     2/10
FRYING PAN BUOY  1100   73 75  280/ 10/ 12 1014.4S   2/10   2/110/10
BUOY 41025       1100   67     330/  6/ 10 1013.0F   4/ 5   3/180/ 5
CAPE LOOKOUT NC  1100   67     300/  7/  9 1013.9R
BUOY 41002       1038   71 80  180/ 10/ 14 1015.3R   4/ 8   3/ 70/ 8
BUOY 41010       1100   80 80  250/  6/  8 1014.1R   3/10   3/ 50/10
BUOY 41012       NOT AVBL
ST AUGUSTINE FL  1100   69     270/  4/  5 1014.6R
CAPERS NEARSHORE 1000   70      CALM  /  2   N/A
FRIPP NEARSHORE  NOT AVBL


$$



USA.gov is the U.S. government's official web portal to all federal, state and local government web resources and services.